Flag for Germany Weather past 2 weeks in Singen (Hohentwiel), Baden-Württemberg, Germany

Now
68 °F

Overcast.


Feels Like: 68 °F
Forecast: 42 / 69 °F
Wind: 3 mph from East

Location: Konstanz

Current Time: Apr 26, 2015 at 4:06:56 PM

Latest Report: Apr 26, 2015 at 3:00 PM


Visibility: 47 mi

Pressure: 29.73 "Hg

Humidity: 53%

Dew point: 50 °F

Location of Singen (Hohentwiel)Location

Historic Weather in Singen (Hohentwiel) — Graph

°F

Singen (Hohentwiel) temperature yesterday

Maximum temperature yesterday: 65 °F (at 3:00 PM)
Minimum temperature yesterday: 46 °F (at 7:00 AM)
Average temperature yesterday: 55 °F

Past Weeks' High & Low Weather Summary

 TemperatureHumidityPressure
High74 °F (Apr 22, 5:00 PM)99% (Apr 17, 10:00 PM)30.48 "Hg (Apr 17, 10:00 PM)
Low39 °F (Apr 19, 7:00 AM)18% (Apr 22, 7:00 PM)29.73 "Hg (Apr 26, 3:00 PM)
Average55 °F60%30.15 "Hg
* Reported Apr 11 3:00 PM — Apr 26 3:00 PM, Singen (Hohentwiel), Weather by CustomWeather, © 2015

Note: Actual official high and low records may vary slightly from our data, if they occured in-between our weather recording intervals... More about our weather records

Advertising

Singen (Hohentwiel) weather history for previous 24 hours

 ConditionsComfort  
Time TempWeatherWind HumidityBarometerVisibility
3:00 PM
Sun, Apr 26
68 °FOvercast.3 mph53%29.73 "Hg47 mi
2:00 PM65 °FOvercast.3 mph60%29.77 "Hg47 mi
1:00 PM65 °FOvercast.2 mph61%29.79 "Hg47 mi
12:00 PM60 °FOvercast.1 mph68%29.83 "Hg47 mi
11:00 AM57 °FPartly sunny.2 mph74%29.85 "Hg47 mi
10:00 AM57 °FPartly sunny.2 mph76%29.85 "Hg47 mi
9:00 AM56 °FScattered clouds.2 mph78%29.87 "Hg47 mi
8:00 AM53 °FScattered clouds.1 mph88%29.89 "Hg47 mi
7:00 AM49 °FScattered clouds.1 mph96%29.89 "Hg47 mi
6:00 AM51 °FPassing clouds.1 mph97%29.89 "Hg19 mi
5:00 AM51 °FOvercast.1 mph95%29.90 "Hg19 mi
4:00 AM53 °FOvercast.2 mph91%29.91 "Hg40 mi
3:00 AM53 °FOvercast.1 mph95%29.91 "Hg31 mi
2:00 AM53 °FOvercast.2 mph96%29.92 "Hg14 mi
1:00 AM53 °FOvercast.1 mph94%29.93 "Hg28 mi
12:00 AM53 °FOvercast.3 mph94%29.93 "Hg43 mi
11:00 PM
Sat, Apr 25
54 °FLight rain. Overcast.5 mph89%29.92 "Hg6 mi
10:00 PM55 °FOvercast.1 mph86%29.90 "Hg16 mi
9:00 PM55 °FPassing clouds.2 mph87%29.88 "Hg28 mi
8:00 PM58 °FOvercast.1 mph74%29.87 "Hg28 mi
7:00 PM59 °FOvercast.1 mph72%29.87 "Hg25 mi
6:00 PM60 °FLight rain. Overcast.5 mph66%29.88 "Hg19 mi
5:00 PM62 °FOvercast.7 mph55%29.86 "Hg19 mi
4:00 PM64 °FOvercast.5 mph49%29.85 "Hg25 mi
Weather by CustomWeather, © 2015

See weather overviewHow to use our weather pages